, MO

(GMT )
Kansas City

Weather History for KMKC - December, 2013

Change the Weather History Date:

Wednesday, December 25, 2013

  Actual Average Record
Temperature  
Mean Temperature 34 °F -  
Max Temperature 41 °F 38 °F 66 °F (2016)
Min Temperature 28 °F 21 °F 5 °F (2000)
Degree Days  
Heating Degree Days 30    
Moisture  
Dew Point 25 °F    
Average Humidity 75    
Maximum Humidity 85    
Minimum Humidity 55    
Precipitation  
Precipitation 0.00 in - - ()
Sea Level Pressure  
Sea Level Pressure 30.31 in    
Wind  
Wind Speed 6 mph (West)    
Max Wind Speed 9 mph    
Max Gust Speed -    
Visibility 7 miles    
Events      
Averages and records for this station are not official NWS values.
T = Trace of Precipitation, MM = Missing Value Source: NWS Daily Summary

Daily Weather History Graph

Daily Weather History Graph

Search for Another Location

Airport or City:

Trip Planner

Search our weather history database for the weather conditions in past years. The results will help you decide how hot, cold, wet, or windy it might be!

Date:

Astronomy

Dec. 25, 2013 Rise Set
Actual Time 7:35 AM CST 5:01 PM CST
Civil Twilight 7:05 AM CST 5:31 PM CST
Nautical Twilight 6:32 AM CST 6:05 PM CST
Astronomical Twilight 5:59 AM CST 6:37 PM CST
Moon 12:07 AM CST (12/25) 12:03 PM CST (12/25)
Length of Visible Light 10h 25m
Length of Day
9h 25m
Waning Gibbous, 48% of the Moon is Illuminated
Dec 25
Waning Gibbous
Jan 1
New
Jan 7
First Quarter
Jan 15
Full
Jan 23
Last Quarter

Hourly Weather History & Observations

Time (CST) Temp. Windchill Dew Point Humidity Pressure Visibility Wind Dir Wind Speed Gust Speed Precip Events Conditions
12:54 AM 30.9 °F 25.2 °F 26.1 °F 82% 30.28 in 5.0 mi WSW 5.8 mph - N/A   Haze
1:17 AM 30.9 °F 26.2 °F 26.1 °F 82% 30.24 in 5.0 mi WSW 4.6 mph - N/A   Haze
1:54 AM 30.9 °F 26.2 °F 26.1 °F 82% 30.28 in 5.0 mi WSW 4.6 mph - N/A   Haze
2:09 AM 30.9 °F 25.2 °F 26.1 °F 82% 30.25 in 5.0 mi WSW 5.8 mph - N/A   Haze
2:54 AM 30.9 °F 25.2 °F 27.0 °F 85% 30.29 in 4.0 mi WSW 5.8 mph - N/A   Overcast
3:54 AM 32.0 °F 26.4 °F 27.0 °F 82% 30.28 in 4.0 mi West 5.8 mph - N/A   Haze
4:13 AM 32.0 °F 25.6 °F 27.0 °F 82% 30.26 in 5.0 mi WNW 6.9 mph - N/A   Haze
4:43 AM 32.0 °F 25.6 °F 26.1 °F 79% 30.26 in 5.0 mi WNW 6.9 mph - N/A   Haze
4:54 AM 32.0 °F 24.2 °F 26.1 °F 79% 30.29 in 5.0 mi WNW 9.2 mph - N/A   Haze
5:54 AM 30.9 °F 24.3 °F 26.1 °F 82% 30.30 in 5.0 mi WNW 6.9 mph - N/A   Haze
6:54 AM 30.9 °F 26.2 °F 25.0 °F 79% 30.30 in 5.0 mi West 4.6 mph - N/A   Haze
7:54 AM 30.0 °F 23.2 °F 24.1 °F 79% 30.34 in 5.0 mi West 6.9 mph - N/A   Haze
8:37 AM 30.0 °F 23.2 °F 23.0 °F 75% 30.31 in 5.0 mi West 6.9 mph - N/A   Haze
8:54 AM 30.0 °F 25.2 °F 23.0 °F 75% 30.33 in 5.0 mi West 4.6 mph - N/A   Haze
9:06 AM 30.0 °F 23.2 °F 23.0 °F 75% 30.31 in 5.0 mi West 6.9 mph - N/A   Haze
9:54 AM 30.9 °F 26.2 °F 24.1 °F 76% 30.35 in 5.0 mi West 4.6 mph - N/A   Haze
10:54 AM 33.1 °F 26.9 °F 26.1 °F 75% 30.34 in 5.0 mi WSW 6.9 mph - N/A   Haze
11:54 AM 35.1 °F 30.1 °F 26.1 °F 70% 30.32 in 7.0 mi WSW 5.8 mph - N/A   Clear
12:54 PM 36.0 °F 29.0 °F 26.1 °F 67% 30.30 in 9.0 mi WSW 9.2 mph - N/A   Clear
1:54 PM 39.0 °F 32.8 °F 26.1 °F 60% 30.29 in 10.0 mi WSW 9.2 mph - N/A   Clear
2:54 PM 39.9 °F 35.8 °F 27.0 °F 60% 30.29 in 10.0 mi West 5.8 mph - N/A   Clear
3:54 PM 41.0 °F 35.8 °F 26.1 °F 55% 30.31 in 10.0 mi WNW 8.1 mph - N/A   Clear
4:54 PM 39.0 °F 34.0 °F 25.0 °F 57% 30.32 in 10.0 mi WNW 6.9 mph - N/A   Clear
5:54 PM 37.9 °F 33.5 °F 25.0 °F 60% 30.32 in 10.0 mi WSW 5.8 mph - N/A   Clear
6:54 PM 35.1 °F 31.0 °F 25.0 °F 67% 30.34 in 10.0 mi WSW 4.6 mph - N/A   Clear
7:54 PM 33.1 °F 27.7 °F 25.0 °F 72% 30.35 in 10.0 mi SW 5.8 mph - N/A   Clear
8:54 PM 32.0 °F - 25.0 °F 75% 30.36 in 10.0 mi Calm Calm - N/A   Clear
9:54 PM 30.0 °F 25.2 °F 24.1 °F 79% 30.37 in 10.0 mi SSW 4.6 mph - N/A   Clear
10:54 PM 28.9 °F - 23.0 °F 78% 30.37 in 10.0 mi Calm Calm - N/A   Clear
11:54 PM 28.0 °F 24.2 °F 24.1 °F 85% 30.36 in 9.0 mi SW 3.5 mph - N/A   Clear